Location: Baia Mare
(47.6567°N, 23.5850°E)
Time: 05:02:47
(UTC+03:00)

ISS - Pass Details

Date: 14 September 2018
Orbit: 403 x 408 km, 51.6° (Epoch: 25 September)

Event Time Altitude Azimuth Distance (km) Brightness Sun altitude
Exits shadow 03:43:20 11° 71° (ENE) 1,423 -0.4 -30.2°
Drops below altitude 10° 03:43:27 10° 72° (ENE) 1,465 -0.3 -30.1°
Sets 03:45:37 0° 80° (E) 2,323 0.7 -29.9°
